Location: Bottens
(46.6171°N, 6.6605°E)
Time: 20:41:02
(UTC+00:00)

Cosmos 1437 - Pass Details

Date: 20 June 2021
Orbit: 334 x 335 km, 81.2° (Epoch: 23 July)

Event Time Altitude Azimuth Distance (km) Brightness Sun altitude
Rises 01:42:53 0° 341° (NNW) 2,129 7.0 -14.2°
Reaches altitude 10° 01:44:56 10° 331° (NNW) 1,284 5.6 -14.0°
Maximum altitude 01:47:28 34° 264° (W) 585 3.2 -13.8°
Enters shadow 01:48:00 30° 238° (WSW) 631 3.1 -13.8°
